Regional Weather Roundup
Issued by NWS

Home | Current Version | Previous Version | Graphics & Text | Print | Product List | Glossary On
Versions: 1 2 3 4 5 6 7 8 9 10 11 12 13 14 15 16 17 18 19 20 21 22 23 24 25 26 27 28 29 30 31 32 33 34 35 36 37 38 39 40 41 42 43 44 45 46 47 48 49 50
000
ASUS43 KFSD 191502
RWRSD

WEATHER ROUNDUP FOR SOUTH DAKOTA
NATIONAL WEATHER SERVICE SIOUX FALLS SD
1000 AM CDT TUE SEP 19 2017

NOTE: "FAIR" INDICATES FEW OR NO CLOUDS BELOW 12,000 FEET WITH NO
SIGNIFICANT WEATHER AND/OR OBSTRUCTIONS TO VISIBILITY.


SDZ001>005-009-010-012>017-191600-
NORTHWEST AND NORTH CENTRAL SOUTH DAKOTA

CITY           SKY/WX    TMP DP  RH WIND       PRES   REMARKS
BUFFALO          N/A     61  45  55 NW9       29.47R
MOBRIDGE       CLOUDY    69  62  78 SE23G30   29.50F
$$

SDZ012>016-024>037-041>051-057-063-072>074-191600-
SOUTHWEST AND SOUTH CENTRAL SOUTH DAKOTA

CITY           SKY/WX    TMP DP  RH WIND       PRES   REMARKS
RAPID CTY ARPT SUNNY     63  48  59 NE6       29.55R
PIERRE         CLOUDY    67  61  81 SE18      29.52F
CUSTER         CLOUDY    59  36  42 SW9       29.67S
ELLSWORTH AFB  CLOUDY    61  43  50 N10       29.55R
PHILIP         CLOUDY    72  59  63 S13G18    29.51S
PINE RIDGE     CLOUDY    64  55  72 S18G24    29.57F
SPEARFISH      FAIR      59  43  55 W5        29.61R
WINNER         FAIR      73  63  70 S18G28    29.56F
$$

SDZ004>011-016>023-039-040-191600-
NORTHEAST SOUTH DAKOTA

CITY           SKY/WX    TMP DP  RH WIND       PRES   REMARKS
ABERDEEN       CLOUDY    70  64  81 SE24G32   29.64F
WATERTOWN      CLOUDY    66  65  96 SE21G30   29.73F
BROOKINGS      CLOUDY    66  64  93 SE18      29.76F
SISSETON         N/A     67  65  93 SE16G25   29.71F
$$

SDZ017-020-022-023-036>040-048>070-191600-
SOUTHEAST SOUTH DAKOTA

CITY           SKY/WX    TMP DP  RH WIND       PRES   REMARKS
SIOUX FALLS    DRIZZLE   68  67  96 S16G24    29.77S FOG
HURON          CLOUDY    68  64  87 SE20G26   29.66F
MITCHELL       CLOUDY    69  65  86 SE14G24   29.69F
YANKTON        CLOUDY    69  66  90 SE17      29.73F
$$

ABBREVIATIONS USED IN REMARKS
   TC - TEMPERATURE IN CELSIUS
  WCI - WIND CHILL INDEX
   HX - HEAT INDEX
  VSB - VISIBILITY





USA.gov is the U.S. government's official web portal to all federal, state and local government web resources and services.